Miscellaneous Local Product
Issued by NWS North Platte, NE

Home | Current Version | Previous Version | Text Only | Print | Product List | Glossary On
Versions: 1 2 3 4 5 6 7 8 9 10 11 12 13 14 15 16 17 18 19 20 21 22 23 24 25 26 27 28 29 30 31 32 33 34 35 36 37 38 39 40 41 42 43 44 45 46 47 48 49 50
000
AXUS43 KLBF 222310
MISLBF


WESTERN AND NORTH CENTRAL NEBRASKA HOURLY WEATHER ROUNDUP
NATIONAL WEATHER SERVICE NORTH PLATTE NE
500 PM CST WED FEB 22 2017

NOTE: "FAIR" INDICATES FEW OR NO CLOUDS BELOW 12,000 FEET WITH NO
SIGNIFICANT WEATHER AND/OR OBSTRUCTIONS TO VISIBILITY.

NOTE: STATIONS NOT REPORTING VARIABLES SUCH AS SKY/WEATHER OR
PRESSURE ARE PROVIDED BY RAWS AND APRS NETWORKS AND ARE NOT UNDER
NATIONAL WEATHER SERVICE QUALITY CONTROL.

...OBSERVATIONS IN AND NEAR THE EASTERN PANHANDLE OF NEBRASKA...

CITY           SKY/WX    TMP DP  RH WIND       PRES   REMARKS
PINE RIDGE     PTSUNNY   53  20  27 NW13      29.77S
CHADRON        SUNNY     53  22  29 NW14      29.77S
ALLIANCE       MOSUNNY   52  14  22 NW16G24   29.76S
SIDNEY         SUNNY     56  15  20 N17       29.77F
CRESCENT LAKE    N/A     54  13  19 NW10        N/A
$$

...OBSERVATIONS IN NORTHERN NEBRASKA AND FAR SOUTHERN SOUTH DAKOTA...

CITY           SKY/WX    TMP DP  RH WIND       PRES   REMARKS
WINNER         FAIR      56  34  43 N17       29.75R
VALENTINE      CLOUDY    57  22  25 N12G22    29.75S
THEDFORD       PTSUNNY   58  25  28 N6        29.77S
AINSWORTH      CLOUDY    57  28  31 N14       29.76R
O`NEILL        SUNNY     59  31  34 NW15      29.75R
ORD            SUNNY     63  29  27 N10       29.73R
BROKEN BOW     SUNNY     64  23  21 N8        29.73S
VALENTINE NWR    N/A     56  24  29 N10G20      N/A
BUTTE            N/A     54  36  51 NW12G21     N/A
HALSEY           N/A     62  22  21 NW7G15      N/A
CHAMBERS         N/A     58  31  36 N5          N/A
EWING            N/A     59  33  37 NW10G17     N/A
$$

...OBSERVATIONS IN SOUTHWEST NEBRASKA AND FAR NORTHEAST COLORADO...

CITY           SKY/WX    TMP DP  RH WIND       PRES   REMARKS
HOLYOKE        FAIR      64  14  14 N6        29.75S
IMPERIAL       SUNNY     63  17  17 NE6       29.74F
OGALLALA       SUNNY     61  17  17 N8        29.76F
NORTH PLATTE   SUNNY     64  19  17 NW10      29.75S
MCCOOK         SUNNY     66  24  20 N8        29.73F
LEXINGTON      SUNNY     65  21  18 N8        29.74S
STAPLETON        N/A     60  23  24 CALM        N/A
GOTHENBURG       N/A     64  21  19 NW7         N/A
CALLAWAY         N/A     61  23  23 NW8         N/A
$$

...OBSERVATIONS IN CENTRAL LINCOLN COUNTY AREA...

CITY           SKY/WX    TMP DP  RH WIND       PRES   REMARKS
N.P. AIRPORT   SUNNY     64  19  17 NW10      29.75S
N.P. DOWNTOWN    N/A     61  22  22 NW5         N/A
N.P. SOUTHEAST   N/A     62  22  21 NW3         N/A
N.P. HILLCREST   N/A     61  22  22 NW7         N/A
$$

...SOME OBSERVATIONS FROM AROUND THE REGION...

CITY           SKY/WX    TMP DP  RH WIND       PRES   REMARKS
LARAMIE        LGT SNOW  30  26  85 NE8       29.80F FOG     WCI  22
CHEYENNE       CLOUDY    41  18  39 N13G24    29.79S
DENVER         MOSUNNY   55  20  25 E25       29.73F
AKRON          SUNNY     58  17  20 NE5       29.76F
SCOTTSBLUFF    PTSUNNY   53  15  22 NW13      29.78S
RAPID CITY     SUNNY     44  30  57 N33G41    29.79R
BISMARCK       CLOUDY    34  31  88 NE9       29.90R WCI  27
PIERRE         MOSUNNY   43  33  68 N26G32    29.78R
SIOUX FALLS    MOSUNNY   54  42  64 NW23G31   29.68R
OMAHA          MOSUNNY   70  38  31 N14       29.65R
GRAND ISLAND   SUNNY     67  28  23 N16       29.72R
KANSAS CITY    PTSUNNY   77  35  21 W7        29.63S
WICHITA        MOSUNNY   75  45  34 S8        29.67S
OKLAHOMA CITY  PTSUNNY   79  38  22 W10       29.70S
DALLAS         MOSUNNY   83  43  24 S14       29.72S
AMARILLO       PTSUNNY   77  27  15 W7        29.78F
DODGE CITY     SUNNY     75  24  15 N5        29.71F
HAYS             N/A     72  30  21 NW5       29.71F
GOODLAND       SUNNY     63  20  19 E5        29.74F
$$




USA.gov is the U.S. government's official web portal to all federal, state and local government web resources and services.